Regional Weather Roundup
Issued by NWS

Home | Current Version | Previous Version | Text Only | Print | Product List | Glossary Off
Versions: 1 2 3 4 5 6 7 8 9 10 11 12 13 14 15 16 17 18 19 20 21 22 23 24 25 26 27 28 29 30 31 32 33 34 35 36 37 38 39 40 41 42 43 44 45 46 47 48 49 50

000
ASUS45 KSLC 210110
RWRUT

UTAH REGIONAL WEATHER ROUNDUP
NATIONAL WEATHER SERVICE SALT LAKE CITY UT
700 PM MDT MON OCT 20 2014

UTZ001>011-023>025-210200-

NORTHERN UTAH

CITY           SKY/WX    TMP DP  RH WIND       PRES   REMARKS
BRIGHAM CITY   CLEAR     70  40  33 CALM      29.91F
HILL AFB       CLEAR     69  38  31 SE5       29.94F
LOGAN          CLEAR     64  39  39 E6        29.92F
OGDEN          CLEAR     67  38  34 CALM      29.91F
PROVO AIRPORT  PTCLDY    61  43  51 CALM      29.94F
SALT LAKE CITY PTCLDY    68  39  34 W5        29.90F
VERNAL         CLEAR     58  40  51 SW3       30.05S
WENDOVER       CLOUDY    66  37  34 CALM      29.88F
HEBER CITY     PTCLDY    61  34  36 S6        30.01S
WEST JORDAN    CLEAR     66  45  45 S8        29.93F

$$

UTZ012>022-026-027-210200-

SOUTHERN/CENTRAL UTAH

CITY           SKY/WX    TMP DP  RH WIND       PRES   REMARKS
BLANDING       CLEAR     63  37  39 CALM      30.17S
BRYCE CANYON   CLEAR     52  36  54 S7        30.17S
CEDAR CITY     PTCLDY    64  37  36 SW8       30.01S
DELTA          CLEAR     68  36  30 SE6       29.94F
HANKSVILLE       N/A     70  36  28 SE3       30.01S
MILFORD        MOCLDY    70  39  32 S13       29.96S
MOAB/CYNLANDS  CLEAR     67  38  34 NW7       29.99S
PRICE            N/A     63  35  35 SE8       30.08S
ST GEORGE      PTCLDY    79  39  24 SW10      29.87S
KANAB            N/A     64  36  34 E6        30.04S

$$

REGIONAL REPORTS     COLORADO/ARIZONA

CITY           SKY/WX    TMP DP  RH WIND       PRES   REMARKS
CRAIG, CO      PTCLDY    52  38  58 CALM      30.11S
GRAND JUNCTION PTCLDY    59  36  42 CALM      30.04R
RIFLE          LGT RAIN  60  37  42 S6        30.07S
MONTROSE       PTCLDY    60  41  49 E7        30.12R
CORTEZ         CLOUDY    63  42  46 SE10      30.12R
PAGE, AZ       NOT AVBL
GRAND CANYON   PTCLDY    57  39  51 E6        30.13S
KINGMAN          N/A     73  45  36 SW9       29.93F
FLAGSTAFF      MOCLDY    55  42  61 CALM      30.16S

$$

REGIONAL REPORTS    NEVADA/IDAHO/WYOMING

CITY           SKY/WX    TMP DP  RH WIND       PRES   REMARKS
LAS VEGAS, NV  PTCLDY    85  43  22 S9        29.78S
ELY            PTCLDY    64  30  27 S12       29.99S
ELKO           MOCLDY    72  26  18 S12G22    29.82F
POCATELLO, ID  PTCLDY    61  36  39 S9        29.90F
BURLEY         CLEAR     66  37  34 SE6       29.82F
EVANSTON, WY   CLOUDY    58  33  39 S12       30.09F
ROCK SPRINGS   CLEAR     56  31  38 SW7       30.09S
KEMMERER       PTCLDY    59  30  33 S5        30.10F

$$


USA.gov is the U.S. government's official web portal to all federal, state and local government web resources and services.